This demonstration page uses our WeatherBlox Daily Observations layout. Learn more.

Left ArrowRight Arrow

38.80484, -77.04692

Hourly Observations for October 29, 2021

Temp ( °F °C ) Dew Point ( °F °C ) Humidity (%) Winds ( mph kmh ) Pressure ( in mb ) Visibility ( mi km ) Precip ( " mm )
12:52 am 00:52 Cloudy with Light Rain 59 15 52 11.1 78 78 E 16 26 29.82 1010 10 16 0.00 0.00
1:52 am 01:52 Cloudy 59 15 52 11.1 78 78 E 10 17 29.80 1009 10 16 0.00 0.00
2:52 am 02:52 Cloudy with Drizzle 58 14.4 53 11.7 84 84 E 12 19 29.81 1009 7 11 0.00 0.00
3:11 am 03:11 Cloudy with Light Rain 58 14.4 53 11.7 84 84 E 14 22 29.80 1009 10 16 0.00 0.00
3:52 am 03:52 Cloudy with Light Rain 57 13.9 53 11.7 87 87 E 15 24 29.77 1008 7 11 0.05 1.27
4:52 am 04:52 Cloudy with Light Rain 58 14.4 54 12.2 87 87 E 16 26 29.74 1007 10 16 0.02 0.51
5:11 am 05:11 Cloudy with Light Rain 58 14.4 54 12.2 87 87 E 15 24 29.74 1007 5 8 0.02 0.51
5:52 am 05:52 Cloudy with Light Rain 58 14.4 54 12.2 87 87 E 15 24 29.71 1006 4 6 0.03 0.76
6:52 am 06:52 Cloudy with Light Rain 58 14.4 54 12.2 87 87 E 16 26 29.68 1005 4 6 0.01 0.25
7:31 am 07:31 Cloudy with Light Rain 59 15 55 12.8 87 87 E 18 30 29.64 1004 2 2 0.00 0.00
7:41 am 07:41 Cloudy with Light Rain 59 15 55 12.8 87 87 E 17 28 29.65 1004 3 4 0.00 0.00
7:47 am 07:47 Cloudy with Mist and Fog 59 15 55 13 88 88 E 16 26 29.65 1004 4 6 0.00 0.00
7:52 am 07:52 Cloudy 59 15 55 12.8 87 87 E 18 30 29.65 1004 7 11 0.00 0.00
8:22 am 08:22 Cloudy with Light Rain 59 15 55 12.8 87 87 E 18 30 29.63 1003 3 4 0.01 0.25
8:52 am 08:52 Cloudy with Light Rain 59 15 55 12.8 87 87 E 22 35 29.61 1003 2 3 0.01 0.25
9:18 am 09:18 Cloudy with Light Rain 59 15 55 12.8 87 87 E 18 30 29.62 1003 2 2 0.01 0.25
9:43 am 09:43 Cloudy with Light Rain 59 15 55 12.8 87 87 E 22 35 29.58 1002 4 6 0.06 1.52
9:52 am 09:52 Cloudy with Rain 59 15 55 12.8 87 87 E 18 30 29.58 1002 4 6 0.07 1.78
10:09 am 10:09 Cloudy with Light Rain 60 15.6 55 12.8 84 84 E 20 31 29.58 1002 2 2 0.01 0.25
10:38 am 10:38 Cloudy with Light Rain 59 15 55 12.8 87 87 E 21 33 29.58 1002 2 3 0.05 1.27
10:52 am 10:52 Cloudy with Light Rain 60 15.6 55 12.8 84 84 E 20 31 29.57 1001 2 3 0.06 1.52
11:00 am 11:00 Cloudy with Light Rain 60 15.6 56 13.3 86 86 E 22 35 29.57 1001 3 5 0.00 0.00
11:09 am 11:09 Cloudy with Light Rain 60 15.6 56 13.3 86 86 E 20 31 29.55 1001 2 3 0.01 0.25
11:52 am 11:52 Cloudy with Light Rain 60 15.6 56 13.3 86 86 E 18 30 29.54 1001 2 3 0.05 1.27
12:04 pm 12:04 Cloudy with Rain 60 15.6 56 13.3 86 86 E 10 17 29.56 1001 1 1 0.02 0.51
12:14 pm 12:14 Cloudy with Rain 60 15.6 56 13.3 86 86 E 13 20 29.55 1001 2 3 0.10 2.54
12:52 pm 12:52 Cloudy with Rain 61 16.1 57 13.9 87 87 E 20 31 29.51 999 2 2 0.19 4.83
1:08 pm 13:08 Cloudy with Light Rain 61 16.1 57 13.9 87 87 E 17 28 29.51 999 3 5 0.10 2.54
1:13 pm 13:13 Cloudy with Light Rain 61 16.1 57 13.9 87 87 E 15 24 29.51 999 1 2 0.10 2.54
1:29 pm 13:29 Cloudy with Light Rain 61 16.1 57 13.9 87 87 E 16 26 29.51 999 3 5 0.16 4.06
1:41 pm 13:41 Cloudy with Heavy Rain 61 16.1 57 13.9 87 87 ESE 16 26 29.50 999 2 3 0.21 5.33
1:52 pm 13:52 Cloudy with Rain 61 16.1 57 13.9 87 87 E 16 26 29.49 999 3 5 0.25 6.35
1:55 pm 13:55 Cloudy with Light Rain 61 16.1 58 14.4 90 90 E 17 28 29.50 999 3 4 0.01 0.25
2:05 pm 14:05 Cloudy with Light Rain 61 16.1 58 14.4 90 90 WSW 9 15 29.52 1000 4 6 0.05 1.27
2:15 pm 14:15 Cloudy with Rain 62 16.7 58 14.4 86 86 SSW 12 19 29.52 1000 1 2 0.06 1.52
2:28 pm 14:28 Cloudy with Light Rain 62 16.7 58 14.4 86 86 VRB 5 7 29.51 999 3 5 0.17 4.32
2:43 pm 14:43 Cloudy with Rain 62 16.7 58 14.4 86 86 NE 12 19 29.49 999 4 6 0.18 4.57
2:52 pm 14:52 Cloudy with Light Rain 62 16.7 58 14.4 86 86 NE 9 15 29.49 999 5 8 0.20 5.08
3:52 pm 15:52 Cloudy with Light Rain 62 16.7 58 14.4 86 86 NE 10 17 29.47 998 8 13 0.05 1.27
4:28 pm 16:28 Cloudy with Rain 61 16.1 58 14.4 90 90 NE 13 20 29.47 998 4 6 0.05 1.27
4:52 pm 16:52 Cloudy with Light Rain 61 16.1 58 14.4 90 90 NE 7 11 29.46 998 8 13 0.10 2.54
5:10 pm 17:10 Cloudy with Light Rain 61 16.1 58 14.4 90 90 NE 8 13 29.48 998 8 13 0.03 0.76
5:52 pm 17:52 Cloudy with Light Rain 60 15.6 57 13.9 90 90 NE 10 17 29.46 998 10 16 0.05 1.27
6:52 pm 18:52 Cloudy 60 15.6 57 13.9 90 90 N 7 11 29.45 997 10 16 0.00 0.00
7:44 pm 19:44 Cloudy 60 15.6 56 13.3 86 86 NNE 14 22 29.46 998 10 16 0.00 0.00
7:52 pm 19:52 Cloudy 60 15.6 56 13.3 86 86 NNE 10 17 29.45 997 10 16 0.00 0.00
8:52 pm 20:52 Cloudy 59 15 56 13.3 90 90 N 7 11 29.48 998 10 16 0.00 0.00
9:52 pm 21:52 Cloudy 60 15.6 55 12.8 84 84 NW 6 9 29.50 999 10 16 0.00 0.00
10:52 pm 22:52 Cloudy with Light Rain 58 14.4 55 12.8 90 90 NW 7 11 29.52 1000 10 16 0.00 0.00
11:02 pm 23:02 Cloudy with Light Rain 58 14.4 55 12.8 90 90 NNW 8 13 29.52 1000 10 16 0.00 0.00
11:50 pm 23:50 Cloudy 57 14 55 13 94 94 NNW 5 7 29.51 999 10 16 0.01 0.25
11:52 pm 23:52 Cloudy 58 14.4 55 12.8 90 90 NNW 5 7 29.51 999 10 16 0.01 0.25

Powered by AerisWeather